Location: Waldport
(44.4270°N, 124.0680°W)
Time: 14:18:38
(UTC-08:00)

Meteor 1-26 Rocket - Visible Passes

Search period start: 05 February 2016 00:00
Search period end: 15 February 2016 00:00
Orbit: 830 x 905 km, 81.3° (Epoch: 05 February)

Date Brightness Start Highest point End Pass type
(mag) Time Alt. Az. Time Alt. Az. Time Alt. Az.
05 Feb 7.4 05:32:04 10° ESE 05:34:30 13° E 05:36:55 10° NE visible
05 Feb 7.3 19:36:22 10° NW 19:38:55 13° W 19:41:29 10° WSW visible
06 Feb 7.4 05:25:04 10° ESE 05:27:35 13° E 05:30:05 10° NE visible
06 Feb 7.4 19:29:31 10° NW 19:32:00 13° W 19:34:28 10° WSW visible
07 Feb 7.4 05:18:05 10° ESE 05:20:39 13° E 05:23:14 10° NE visible
07 Feb 7.4 19:22:40 10° NW 19:25:04 13° W 19:27:29 10° WSW visible
08 Feb 7.4 05:11:05 10° ESE 05:13:44 14° E 05:16:22 10° NE visible
08 Feb 4.2 06:50:35 10° SSW 06:56:14 82° W 07:01:49 10° N visible
08 Feb 7.4 19:15:49 10° WNW 19:18:08 13° W 19:20:28 10° WSW visible
09 Feb 7.3 05:04:06 10° ESE 05:06:49 14° E 05:09:31 10° NE visible
09 Feb 4.2 06:43:41 10° SSW 06:49:19 81° W 06:54:54 10° N visible
09 Feb 7.4 19:08:59 10° WNW 19:11:13 12° W 19:13:27 10° WSW visible
10 Feb 7.3 04:57:06 10° ESE 04:59:53 14° E 05:02:39 10° NE visible
10 Feb 4.2 06:36:47 10° SSW 06:42:24 80° W 06:47:59 10° N visible
10 Feb 7.4 19:02:09 10° WNW 19:04:17 12° W 19:06:27 10° WSW visible
11 Feb 7.2 04:50:07 10° ESE 04:52:58 14° E 04:55:47 10° NE visible
11 Feb 4.2 06:29:53 10° SSW 06:35:30 78° W 06:41:04 10° N visible
11 Feb 7.5 18:55:18 10° WNW 18:57:22 12° W 18:59:26 10° WSW visible
12 Feb 7.2 04:43:08 10° ESE 04:46:02 14° E 04:48:55 10° NE visible
12 Feb 4.1 06:22:58 10° SSW 06:28:35 77° WNW 06:34:09 10° N visible
12 Feb 7.5 18:48:29 10° WNW 18:50:26 12° W 18:52:25 10° WSW visible
13 Feb 7.1 04:36:09 10° ESE 04:39:07 15° E 04:42:03 10° NE visible
13 Feb 4.1 06:16:05 10° SSW 06:21:40 76° WNW 06:27:14 10° N visible
13 Feb 7.5 18:41:40 10° WNW 18:43:31 12° W 18:45:23 10° W visible
14 Feb 7.1 04:29:10 10° ESE 04:32:11 15° E 04:35:12 10° NE visible
14 Feb 4.1 06:09:11 10° SSW 06:14:45 75° WNW 06:20:19 10° N visible
14 Feb 7.5 18:34:50 10° WNW 18:36:35 11° W 18:38:21 10° W visible
